Погода в Тярлево

Россия / Санкт-Петербург и Ленинградская область     59°42′06″N   30°26′40″E
темп.,
°C
ветер,
м/с
пор.,
м/с
влажн.,
%
обл.,
%
осадки,
мм/ч
давл.,
гПа
погр.,
м
4 марта, чт
чт400:00+1сз51187100 0.5 1001853
03:00−2сз5118283 0.6 1003574
06:00−4зсз410880 0.0 1002402
09:00−5сз48911 0.0 1002407
12:00−3сз468386 0.0 1003622
15:00−3сз468593 0.1 1004671
18:00−4сз588199 0.1 1004739
21:00−5сз398496 0.1 1004367
5 марта, пт
пт500:00−6зсз388833 0.0 1005273
03:00−7сз379317 0.0 1006233
06:00−8сз379533 0.0 1007274
09:00−7сз379157 0.1 1009401
12:00−6сз3582100 0.1 1011534
15:00−5сз3578100 0.1 1013727
18:00−5зсз368198 0.0 1014261
21:00−6ссз379092 0.2 1016338
6 марта, сб
сб600:00−8зсз359239 0.0 1017138
03:00−9зсз369347 0.0 1018180
06:00−9зсз25940 0.0 1017151
09:00−8зюз37900 0.0 1016255
12:00−4юз58729 0.0 1014774
15:00−3юз7126454 0.0 10091033
18:00−3юз81691100 0.8 10031192
21:00−2зюз81792100 1.8 9971257
7 марта, вс
вс700:00−1зюз81694100 1.2 9931110
03:00−4зсз5981100 3.6 993864
06:00−8зсз5129554 0.4 992590
09:00−7зюз5126970 0.6 9921241
12:00−6з599091 0.7 990799
15:00−5зсз587395 1.8 9891192
18:00−7сз3687100 0.5 991455
21:00−8с61178100 1.0 995971
8 марта, пн
пн800:00−10ссз5108368 0.0 999568
03:00−10ссз6108984 0.1 1002788
06:00−13ссз51086100 0.1 1004813
09:00−13ссз61088100 0.2 1007869
12:00−12ссз6983100 0.1 1010842
15:00−11ссз5883100 0.3 1013888
18:00−11с4986100 0.1 1015791
21:00−13ссз4993100 0.1 1018536